Time,TemperatureF,DewpointF,PressureIn,WindDirection,WindDirectionDegrees,WindSpeedMPH,WindSpeedGustMPH,Humidity,HourlyPrecipIn,Conditions,Clouds,dailyrainin,SoftwareType,DateUTC
2013-06-01 00:01:00,65.8,59.1,29.95,SSW,202,0.9,1.3,79,0.00,CLR,,0.00,WeatherDisplay:10.37,2013-06-01 04:01:00,
2013-06-01 00:02:00,65.8,59.1,29.95,SSW,202,0.9,1.3,79,0.00,CLR,,0.00,WeatherDisplay:10.37,2013-06-01 04:02:00,
2013-06-01 00:07:00,65.8,59.1,29.95,SSW,202,0.9,1.3,79,0.00,CLR,,0.00,WeatherDisplay:10.37,2013-06-01 04:07:00,
2013-06-01 00:12:00,65.5,59.1,29.95,SSW,202,0.9,1.3,80,0.00,CLR,,0.00,WeatherDisplay:10.37,2013-06-01 04:12:00,
2013-06-01 00:17:00,65.5,59.1,29.95,SSW,202,0.9,1.3,80,0.00,CLR,,0.00,WeatherDisplay:10.37,2013-06-01 04:17:00,
2013-06-01 00:22:00,65.1,58.8,29.95,SSW,202,0.9,1.3,80,0.00,CLR,,0.00,WeatherDisplay:10.37,2013-06-01 04:22:00,
2013-06-01 00:27:00,65.1,58.8,29.95,SSW,202,0.9,1.3,80,0.00,CLR,,0.00,WeatherDisplay:10.37,2013-06-01 04:27:00,
2013-06-01 00:32:00,64.9,58.6,29.95,SSW,202,0.9,1.3,80,0.00,CLR,,0.00,WeatherDisplay:10.37,2013-06-01 04:32:00,
2013-06-01 00:37:00,64.8,58.4,29.95,SSW,202,0.9,1.3,80,0.00,CLR,,0.00,WeatherDisplay:10.37,2013-06-01 04:37:00,
2013-06-01 00:42:00,64.6,58.3,29.95,SSW,202,0.9,1.3,80,0.00,CLR,,0.00,WeatherDisplay:10.37,2013-06-01 04:42:00,
2013-06-01 00:47:00,64.4,58.4,29.95,SSW,202,0.9,1.3,81,0.00,CLR,,0.00,WeatherDisplay:10.37,2013-06-01 04:47:00,
2013-06-01 00:52:00,64.2,58.3,29.95,SSW,202,0.9,1.3,81,0.00,CLR,,0.00,WeatherDisplay:10.37,2013-06-01 04:52:00,
2013-06-01 00:57:00,64.0,58.1,29.95,SSW,202,0.9,1.3,81,0.00,CLR,,0.00,WeatherDisplay:10.37,2013-06-01 04:57:00,
2013-06-01 01:02:00,64.0,58.1,29.95,SSW,202,0.9,1.3,81,0.00,CLR,,0.00,WeatherDisplay:10.37,2013-06-01 05:02:00,
2013-06-01 01:07:00,64.0,58.1,29.95,SSW,202,0.9,1.3,81,0.00,CLR,,0.00,WeatherDisplay:10.37,2013-06-01 05:07:00,
2013-06-01 01:12:00,64.0,58.1,29.95,SSW,202,0.9,1.3,81,0.00,CLR,,0.00,WeatherDisplay:10.37,2013-06-01 05:12:00,
2013-06-01 01:17:00,63.9,57.9,29.95,SSW,202,0.9,1.3,81,0.00,CLR,,0.00,WeatherDisplay:10.37,2013-06-01 05:17:00,
2013-06-01 01:22:00,63.7,57.7,29.95,SSW,202,0.9,1.3,81,0.00,CLR,,0.00,WeatherDisplay:10.37,2013-06-01 05:22:00,
2013-06-01 01:27:00,63.5,57.6,29.95,SSW,202,0.9,1.3,81,0.00,CLR,,0.00,WeatherDisplay:10.37,2013-06-01 05:27:00,
2013-06-01 01:32:00,63.3,57.4,29.95,SSW,202,0.9,1.3,81,0.00,CLR,,0.00,WeatherDisplay:10.37,2013-06-01 05:32:00,
2013-06-01 01:37:00,63.1,57.2,29.94,SSW,202,0.9,1.3,81,0.00,CLR,,0.00,WeatherDisplay:10.37,2013-06-01 05:37:00,
2013-06-01 01:42:00,63.0,57.0,29.94,SSW,202,0.9,1.3,81,0.00,CLR,,0.00,WeatherDisplay:10.37,2013-06-01 05:42:00,
2013-06-01 01:47:00,63.0,57.4,29.94,SSW,202,0.9,1.3,82,0.00,CLR,,0.00,WeatherDisplay:10.37,2013-06-01 05:47:00,
2013-06-01 01:52:00,62.8,57.2,29.94,SSW,202,0.9,1.3,82,0.00,CLR,,0.00,WeatherDisplay:10.37,2013-06-01 05:52:00,
2013-06-01 01:57:00,62.6,57.0,29.94,SSW,202,0.9,1.3,82,0.00,CLR,,0.00,WeatherDisplay:10.37,2013-06-01 05:57:00,
2013-06-01 02:02:00,62.6,57.4,29.94,SSW,202,0.9,1.3,83,0.00,CLR,,0.00,WeatherDisplay:10.37,2013-06-01 06:02:00,
2013-06-01 02:07:00,62.4,57.2,29.94,SSW,202,0.9,1.3,83,0.00,CLR,,0.00,WeatherDisplay:10.37,2013-06-01 06:07:00,
2013-06-01 02:12:00,62.2,57.0,29.94,SSW,202,0.9,1.3,83,0.00,CLR,,0.00,WeatherDisplay:10.37,2013-06-01 06:12:00,
2013-06-01 02:17:00,62.4,57.2,29.94,SSW,202,0.9,1.3,83,0.00,CLR,,0.00,WeatherDisplay:10.37,2013-06-01 06:17:00,
2013-06-01 02:22:00,62.2,57.0,29.94,SSW,202,0.9,1.3,83,0.00,CLR,,0.00,WeatherDisplay:10.37,2013-06-01 06:22:00,
2013-06-01 02:27:00,62.2,57.0,29.94,SSW,202,0.9,1.3,83,0.00,CLR,,0.00,WeatherDisplay:10.37,2013-06-01 06:27:00,
2013-06-01 02:32:00,62.2,57.0,29.94,SSW,202,0.9,1.3,83,0.00,CLR,,0.00,WeatherDisplay:10.37,2013-06-01 06:32:00,
2013-06-01 02:37:00,62.2,57.0,29.94,SSW,202,0.9,1.3,83,0.00,CLR,,0.00,WeatherDisplay:10.37,2013-06-01 06:37:00,
2013-06-01 02:42:00,61.9,56.7,29.93,SSW,202,0.9,1.3,83,0.00,CLR,,0.00,WeatherDisplay:10.37,2013-06-01 06:42:00,
2013-06-01 02:47:00,61.9,56.7,29.93,SSW,202,0.9,1.3,83,0.00,CLR,,0.00,WeatherDisplay:10.37,2013-06-01 06:47:00,
2013-06-01 02:52:00,61.9,57.0,29.93,SSW,202,0.9,1.3,84,0.00,CLR,,0.00,WeatherDisplay:10.37,2013-06-01 06:52:00,
2013-06-01 02:57:00,61.7,56.8,29.93,SSW,202,0.9,1.3,84,0.00,CLR,,0.00,WeatherDisplay:10.37,2013-06-01 06:57:00,
2013-06-01 03:02:00,61.7,56.8,29.93,SSW,202,0.9,1.1,84,0.00,CLR,,0.00,WeatherDisplay:10.37,2013-06-01 07:02:00,
2013-06-01 03:07:00,61.7,56.8,29.93,SSW,202,0.9,1.3,84,0.00,CLR,,0.00,WeatherDisplay:10.37,2013-06-01 07:07:00,
2013-06-01 03:12:00,61.7,56.8,29.93,SSW,202,0.9,1.3,84,0.00,CLR,,0.00,WeatherDisplay:10.37,2013-06-01 07:12:00,
2013-06-01 03:17:00,61.5,56.6,29.93,SSW,202,0.9,1.3,84,0.00,CLR,,0.00,WeatherDisplay:10.37,2013-06-01 07:17:00,
2013-06-01 03:22:00,61.5,57.0,29.93,SSW,202,0.9,1.3,85,0.00,CLR,,0.00,WeatherDisplay:10.37,2013-06-01 07:22:00,
2013-06-01 03:27:00,61.5,56.6,29.93,SSW,202,0.9,1.3,84,0.00,CLR,,0.00,WeatherDisplay:10.37,2013-06-01 07:27:00,
2013-06-01 03:32:00,61.5,57.0,29.93,SSW,202,0.9,1.3,85,0.00,CLR,,0.00,WeatherDisplay:10.37,2013-06-01 07:32:00,
2013-06-01 03:37:00,61.5,57.0,29.93,SSW,202,0.9,1.3,85,0.00,CLR,,0.00,WeatherDisplay:10.37,2013-06-01 07:37:00,
2013-06-01 03:42:00,61.5,57.0,29.93,SSW,202,0.9,1.3,85,0.00,CLR,,0.00,WeatherDisplay:10.37,2013-06-01 07:42:00,
2013-06-01 03:47:00,61.5,56.6,29.93,SSW,202,0.9,1.3,84,0.00,CLR,,0.00,WeatherDisplay:10.37,2013-06-01 07:47:00,
2013-06-01 03:52:00,61.3,56.8,29.93,SSW,202,0.9,1.3,85,0.00,CLR,,0.00,WeatherDisplay:10.37,2013-06-01 07:52:00,
2013-06-01 03:57:00,61.2,56.6,29.93,SSW,202,0.9,1.3,85,0.00,CLR,,0.00,WeatherDisplay:10.37,2013-06-01 07:57:00,
2013-06-01 04:02:00,61.0,56.4,29.93,SSW,202,0.9,1.3,85,0.00,CLR,,0.00,WeatherDisplay:10.37,2013-06-01 08:02:00,
2013-06-01 04:07:00,60.8,56.3,29.93,SSW,202,0.9,1.1,85,0.00,CLR,,0.00,WeatherDisplay:10.37,2013-06-01 08:07:00,
2013-06-01 04:12:00,60.8,56.3,29.93,SSW,202,0.9,1.1,85,0.00,CLR,,0.00,WeatherDisplay:10.37,2013-06-01 08:12:00,
2013-06-01 04:17:00,60.6,56.4,29.93,SSW,202,0.9,1.1,86,0.00,CLR,,0.00,WeatherDisplay:10.37,2013-06-01 08:17:00,
2013-06-01 04:22:00,60.6,56.4,29.93,SSW,202,0.9,1.1,86,0.00,CLR,,0.00,WeatherDisplay:10.37,2013-06-01 08:22:00,
2013-06-01 10:04:00,77.4,65.1,29.95,SW,225,6.2,6.2,66,0.00,CLR,,0.00,WeatherDisplay:10.37,2013-06-01 14:04:00,
2013-06-01 10:09:00,77.2,65.4,29.95,SSW,202,4.7,5.8,67,0.00,CLR,,0.00,WeatherDisplay:10.37,2013-06-01 14:09:00,
2013-06-01 10:14:00,77.4,66.4,29.95,SSW,202,3.6,3.6,69,0.00,CLR,,0.00,WeatherDisplay:10.37,2013-06-01 14:14:00,
2013-06-01 10:19:00,78.1,67.1,29.95,SW,225,1.4,1.4,69,0.00,CLR,,0.00,WeatherDisplay:10.37,2013-06-01 14:19:00,
2013-06-01 10:24:00,78.3,66.8,29.95,SW,225,4.0,4.6,68,0.00,CLR,,0.00,WeatherDisplay:10.37,2013-06-01 14:24:00,
2013-06-01 10:29:00,78.4,66.1,29.95,SW,225,4.0,8.1,66,0.00,CLR,,0.00,WeatherDisplay:10.37,2013-06-01 14:29:00,
2013-06-01 10:34:00,78.4,66.1,29.95,South,180,6.9,6.9,66,0.00,CLR,,0.00,WeatherDisplay:10.37,2013-06-01 14:34:00,
2013-06-01 10:39:00,78.1,65.8,29.95,WSW,248,6.7,6.9,66,0.00,CLR,,0.00,WeatherDisplay:10.37,2013-06-01 14:39:00,
2013-06-01 10:44:00,78.3,66.4,29.94,South,180,6.2,6.2,67,0.00,CLR,,0.00,WeatherDisplay:10.37,2013-06-01 14:44:00,
2013-06-01 10:49:00,78.8,67.3,29.94,South,180,6.2,6.2,68,0.00,CLR,,0.00,WeatherDisplay:10.37,2013-06-01 14:49:00,
2013-06-01 10:54:00,79.9,67.9,29.95,South,180,6.2,6.2,67,0.00,CLR,,0.00,WeatherDisplay:10.37,2013-06-01 14:54:00,
2013-06-01 10:59:00,80.2,67.4,29.95,South,180,6.2,6.2,65,0.00,CLR,,0.00,WeatherDisplay:10.37,2013-06-01 14:59:00,
2013-06-01 11:04:00,80.4,68.0,29.95,South,180,6.2,6.2,66,0.00,CLR,,0.00,WeatherDisplay:10.37,2013-06-01 15:04:00,
2013-06-01 11:09:00,80.6,67.7,29.95,South,180,6.2,6.2,65,0.00,CLR,,0.00,WeatherDisplay:10.37,2013-06-01 15:09:00,
2013-06-01 11:14:00,81.0,68.5,29.95,South,180,6.2,6.2,66,0.00,CLR,,0.00,WeatherDisplay:10.37,2013-06-01 15:14:00,
2013-06-01 11:19:00,81.0,68.1,29.95,South,180,6.2,6.2,65,0.00,CLR,,0.00,WeatherDisplay:10.37,2013-06-01 15:19:00,
2013-06-01 11:24:00,81.3,68.4,29.95,South,180,6.2,6.2,65,0.00,CLR,,0.00,WeatherDisplay:10.37,2013-06-01 15:24:00,
2013-06-01 11:29:00,81.1,67.3,29.95,South,180,6.2,6.2,63,0.00,CLR,,0.00,WeatherDisplay:10.37,2013-06-01 15:29:00,
2013-06-01 11:34:00,81.1,68.3,29.94,South,180,6.2,6.2,65,0.00,CLR,,0.00,WeatherDisplay:10.37,2013-06-01 15:34:00,
2013-06-01 11:39:00,81.7,68.3,29.94,South,180,6.2,6.2,64,0.00,CLR,,0.00,WeatherDisplay:10.37,2013-06-01 15:39:00,
2013-06-01 11:44:00,82.0,68.2,29.94,South,180,6.2,6.2,63,0.00,CLR,,0.00,WeatherDisplay:10.37,2013-06-01 15:44:00,
2013-06-01 11:49:00,82.2,68.8,29.94,South,180,6.2,6.2,64,0.00,CLR,,0.00,WeatherDisplay:10.37,2013-06-01 15:49:00,
2013-06-01 11:54:00,82.4,68.5,29.94,South,180,6.2,6.2,63,0.00,CLR,,0.00,WeatherDisplay:10.37,2013-06-01 15:54:00,
2013-06-01 11:59:00,82.4,69.0,29.94,South,180,6.2,6.2,64,0.00,CLR,,0.00,WeatherDisplay:10.37,2013-06-01 15:59:00,
2013-06-01 12:04:00,82.6,68.2,29.94,South,180,6.2,6.2,62,0.00,CLR,,0.00,WeatherDisplay:10.37,2013-06-01 16:04:00,
2013-06-01 12:09:00,82.4,67.6,29.94,SSW,202,6.9,10.4,61,0.00,CLR,,0.00,WeatherDisplay:10.37,2013-06-01 16:09:00,
2013-06-01 12:14:00,82.4,68.5,29.94,SW,225,6.9,6.9,63,0.00,CLR,,0.00,WeatherDisplay:10.37,2013-06-01 16:14:00,
2013-06-01 12:19:00,82.8,68.9,29.94,SSE,158,8.3,8.3,63,0.00,CLR,,0.00,WeatherDisplay:10.37,2013-06-01 16:19:00,
2013-06-01 12:24:00,82.9,68.6,29.94,SW,225,6.9,6.9,62,0.00,CLR,,0.00,WeatherDisplay:10.37,2013-06-01 16:24:00,
2013-06-01 12:29:00,83.5,70.0,29.94,North,0,4.7,4.7,64,0.00,CLR,,0.00,WeatherDisplay:10.37,2013-06-01 16:29:00,
2013-06-01 12:34:00,84.0,70.1,29.94,SSW,202,2.4,5.8,63,0.00,CLR,,0.00,WeatherDisplay:10.37,2013-06-01 16:34:00,
2013-06-01 12:39:00,84.9,70.9,29.93,SW,225,2.0,2.3,63,0.00,CLR,,0.00,WeatherDisplay:10.37,2013-06-01 16:39:00,
2013-06-01 12:44:00,85.1,69.2,29.93,SW,225,2.0,2.3,59,0.00,CLR,,0.00,WeatherDisplay:10.37,2013-06-01 16:44:00,
2013-06-01 12:49:00,85.3,69.8,29.93,SW,225,2.0,2.3,60,0.00,CLR,,0.00,WeatherDisplay:10.37,2013-06-01 16:49:00,
2013-06-01 12:54:00,85.3,69.3,29.93,SW,225,2.0,2.3,59,0.00,CLR,,0.00,WeatherDisplay:10.37,2013-06-01 16:54:00,
2013-06-01 12:59:00,85.5,70.0,29.93,SW,225,2.0,2.3,60,0.00,CLR,,0.00,WeatherDisplay:10.37,2013-06-01 16:59:00,
2013-06-01 13:04:00,85.8,69.8,29.93,SW,225,2.0,2.3,59,0.00,CLR,,0.00,WeatherDisplay:10.37,2013-06-01 17:04:00,
2013-06-01 13:09:00,86.0,70.0,29.93,SW,225,2.0,2.3,59,0.00,CLR,,0.00,WeatherDisplay:10.37,2013-06-01 17:09:00,
2013-06-01 13:14:00,86.4,70.3,29.93,SW,225,2.0,2.3,59,0.00,CLR,,0.00,WeatherDisplay:10.37,2013-06-01 17:14:00,
2013-06-01 13:19:00,86.0,69.0,29.93,SW,225,2.0,2.3,57,0.00,CLR,,0.00,WeatherDisplay:10.37,2013-06-01 17:19:00,
2013-06-01 13:24:00,85.5,69.5,29.93,SW,225,2.0,2.3,59,0.00,CLR,,0.00,WeatherDisplay:10.37,2013-06-01 17:24:00,
2013-06-01 13:29:00,85.1,67.6,29.92,SW,225,2.0,2.3,56,0.00,CLR,,0.00,WeatherDisplay:10.37,2013-06-01 17:29:00,
2013-06-01 13:34:00,84.9,69.0,29.92,SW,225,2.0,2.3,59,0.00,CLR,,0.00,WeatherDisplay:10.37,2013-06-01 17:34:00,
2013-06-01 13:39:00,84.9,68.5,29.92,SW,225,2.0,2.3,58,0.00,CLR,,0.00,WeatherDisplay:10.37,2013-06-01 17:39:00,
2013-06-01 13:44:00,84.7,68.3,29.92,SW,225,2.0,2.3,58,0.00,CLR,,0.00,WeatherDisplay:10.37,2013-06-01 17:44:00,
2013-06-01 13:49:00,84.6,68.7,29.92,SW,225,2.0,2.3,59,0.00,CLR,,0.00,WeatherDisplay:10.37,2013-06-01 17:49:00,
2013-06-01 13:54:00,84.4,68.5,29.92,SW,225,2.0,2.3,59,0.00,CLR,,0.00,WeatherDisplay:10.37,2013-06-01 17:54:00,
2013-06-01 13:59:00,84.4,68.0,29.92,South,180,7.6,8.1,58,0.00,CLR,,0.00,WeatherDisplay:10.37,2013-06-01 17:59:00,
2013-06-01 14:04:00,84.2,67.8,29.91,SSE,158,8.1,8.1,58,0.00,CLR,,0.00,WeatherDisplay:10.37,2013-06-01 18:04:00,
2013-06-01 14:09:00,84.2,67.8,29.92,SW,225,6.9,9.2,58,0.00,CLR,,0.00,WeatherDisplay:10.37,2013-06-01 18:09:00,
2013-06-01 14:14:00,84.0,68.6,29.92,SSW,202,1.6,8.1,60,0.00,CLR,,0.00,WeatherDisplay:10.37,2013-06-01 18:14:00,
2013-06-01 14:19:00,84.0,68.1,29.91,WSW,248,5.6,5.8,59,0.00,CLR,,0.00,WeatherDisplay:10.37,2013-06-01 18:19:00,
2013-06-01 14:24:00,83.8,68.0,29.91,SW,225,4.7,4.7,59,0.00,CLR,,0.00,WeatherDisplay:10.37,2013-06-01 18:24:00,
2013-06-01 14:29:00,83.8,68.5,29.91,South,180,1.8,2.3,60,0.00,CLR,,0.00,WeatherDisplay:10.37,2013-06-01 18:29:00,
2013-06-01 14:34:00,83.8,68.0,29.91,SW,225,2.6,2.6,59,0.00,CLR,,0.00,WeatherDisplay:10.37,2013-06-01 18:34:00,
2013-06-01 14:39:00,83.8,68.0,29.91,SW,225,2.2,2.3,59,0.00,CLR,,0.00,WeatherDisplay:10.37,2013-06-01 18:39:00,
2013-06-01 14:44:00,84.2,68.3,29.91,SW,225,2.2,2.3,59,0.00,CLR,,0.00,WeatherDisplay:10.37,2013-06-01 18:44:00,
2013-06-01 14:49:00,84.4,68.5,29.91,SW,225,2.4,5.8,59,0.00,CLR,,0.00,WeatherDisplay:10.37,2013-06-01 18:49:00,
2013-06-01 14:54:00,84.4,67.5,29.91,SSW,202,11.2,11.5,57,0.00,CLR,,0.00,WeatherDisplay:10.37,2013-06-01 18:54:00,
2013-06-01 14:59:00,84.2,67.8,29.91,SSW,202,11.2,11.5,58,0.00,CLR,,0.00,WeatherDisplay:10.37,2013-06-01 18:59:00,
2013-06-01 15:04:00,84.4,68.5,29.91,SW,225,6.2,6.2,59,0.00,CLR,,0.00,WeatherDisplay:10.37,2013-06-01 19:04:00,
2013-06-01 15:09:00,84.6,67.1,29.90,SSW,202,4.7,4.7,56,0.00,CLR,,0.00,WeatherDisplay:10.37,2013-06-01 19:09:00,
2013-06-01 15:14:00,84.7,68.3,29.90,West,270,5.4,5.8,58,0.00,CLR,,0.00,WeatherDisplay:10.37,2013-06-01 19:14:00,
2013-06-01 15:19:00,85.1,68.2,29.90,SSW,202,4.0,4.6,57,0.00,CLR,,0.00,WeatherDisplay:10.37,2013-06-01 19:19:00,
2013-06-01 15:24:00,84.9,68.0,29.90,North,0,1.4,5.8,57,0.00,CLR,,0.00,WeatherDisplay:10.37,2013-06-01 19:24:00,
2013-06-01 15:29:00,85.3,69.3,29.90,SSW,202,2.6,2.6,59,0.00,CLR,,0.00,WeatherDisplay:10.37,2013-06-01 19:29:00,
2013-06-01 15:34:00,85.5,68.0,29.90,SW,225,3.8,10.4,56,0.00,CLR,,0.00,WeatherDisplay:10.37,2013-06-01 19:34:00,
2013-06-01 15:39:00,84.9,68.5,29.90,WSW,248,5.2,6.9,58,0.00,CLR,,0.00,WeatherDisplay:10.37,2013-06-01 19:39:00,
2013-06-01 15:44:00,84.6,68.2,29.90,SW,225,7.1,7.1,58,0.00,CLR,,0.00,WeatherDisplay:10.37,2013-06-01 19:44:00,
2013-06-01 15:49:00,84.6,68.2,29.90,SW,225,14.5,15.0,58,0.00,CLR,,0.00,WeatherDisplay:10.37,2013-06-01 19:49:00,
2013-06-01 15:54:00,84.6,68.2,29.89,SW,225,14.5,15.0,58,0.00,CLR,,0.00,WeatherDisplay:10.37,2013-06-01 19:54:00,
2013-06-01 15:59:00,84.6,67.6,29.89,SW,225,14.5,15.0,57,0.00,CLR,,0.00,WeatherDisplay:10.37,2013-06-01 19:59:00,
2013-06-01 16:04:00,84.4,67.0,29.89,SW,225,14.5,15.0,56,0.00,CLR,,0.00,WeatherDisplay:10.37,2013-06-01 20:04:00,
2013-06-01 16:09:00,84.0,67.7,29.89,SW,225,14.5,15.0,58,0.00,CLR,,0.00,WeatherDisplay:10.37,2013-06-01 20:09:00,
2013-06-01 16:14:00,83.8,67.5,29.89,SW,225,14.5,15.0,58,0.00,CLR,,0.00,WeatherDisplay:10.37,2013-06-01 20:14:00,
2013-06-01 16:19:00,83.8,68.0,29.89,SW,225,14.5,15.0,59,0.00,CLR,,0.00,WeatherDisplay:10.37,2013-06-01 20:19:00,
2013-06-01 16:24:00,84.2,67.8,29.89,SW,225,14.5,15.0,58,0.00,CLR,,0.00,WeatherDisplay:10.37,2013-06-01 20:24:00,
2013-06-01 16:29:00,85.1,67.6,29.89,SW,225,14.5,15.0,56,0.00,CLR,,0.00,WeatherDisplay:10.37,2013-06-01 20:29:00,
2013-06-01 16:34:00,86.0,68.5,29.89,SW,225,14.5,15.0,56,0.00,CLR,,0.00,WeatherDisplay:10.37,2013-06-01 20:34:00,
2013-06-01 16:39:00,86.7,67.5,29.89,SW,225,14.5,15.0,53,0.00,CLR,,0.00,WeatherDisplay:10.37,2013-06-01 20:39:00,
2013-06-01 16:44:00,87.4,68.2,29.90,SW,225,14.5,15.0,53,0.00,CLR,,0.00,WeatherDisplay:10.37,2013-06-01 20:44:00,
2013-06-01 16:49:00,87.8,68.0,29.89,SW,225,14.5,15.0,52,0.00,CLR,,0.00,WeatherDisplay:10.37,2013-06-01 20:49:00,
2013-06-01 16:54:00,88.2,68.3,29.90,SW,225,14.5,15.0,52,0.00,CLR,,0.00,WeatherDisplay:10.37,2013-06-01 20:54:00,
2013-06-01 16:59:00,88.5,68.1,29.89,SW,225,14.5,15.0,51,0.00,CLR,,0.00,WeatherDisplay:10.37,2013-06-01 20:59:00,
2013-06-01 17:04:00,88.7,67.7,29.89,SW,225,14.5,15.0,50,0.00,CLR,,0.00,WeatherDisplay:10.37,2013-06-01 21:04:00,
2013-06-01 17:09:00,86.5,66.8,29.90,SW,225,2.0,2.3,52,0.00,CLR,,0.00,WeatherDisplay:10.37,2013-06-01 21:09:00,
2013-06-01 17:14:00,84.0,66.1,29.89,South,180,2.4,5.8,55,0.00,CLR,,0.00,WeatherDisplay:10.37,2013-06-01 21:14:00,
2013-06-01 17:19:00,82.0,64.8,29.89,SW,225,3.6,3.6,56,0.00,CLR,,0.00,WeatherDisplay:10.37,2013-06-01 21:19:00,
2013-06-01 17:24:00,81.0,64.8,29.90,SE,135,1.4,4.6,58,0.00,CLR,,0.00,WeatherDisplay:10.37,2013-06-01 21:24:00,
2013-06-01 17:29:00,80.6,64.9,29.89,WSW,248,1.1,4.6,59,0.00,CLR,,0.00,WeatherDisplay:10.37,2013-06-01 21:29:00,
2013-06-01 17:34:00,80.1,64.9,29.89,South,180,2.0,8.1,60,0.00,CLR,,0.00,WeatherDisplay:10.37,2013-06-01 21:34:00,
2013-06-01 17:39:00,79.9,65.2,29.89,West,270,5.6,5.8,61,0.00,CLR,,0.00,WeatherDisplay:10.37,2013-06-01 21:39:00,
2013-06-01 17:44:00,79.0,64.8,29.89,SSW,202,7.4,7.4,62,0.00,CLR,,0.00,WeatherDisplay:10.37,2013-06-01 21:44:00,
2013-06-01 17:49:00,78.3,64.6,29.89,South,180,0.9,2.3,63,0.00,CLR,,0.00,WeatherDisplay:10.37,2013-06-01 21:49:00,
2013-06-01 17:54:00,77.5,64.4,29.90,SW,225,8.1,8.1,64,0.00,CLR,,0.00,WeatherDisplay:10.37,2013-06-01 21:54:00,
2013-06-01 17:59:00,77.0,63.9,29.90,SSW,202,3.6,3.6,64,0.00,CLR,,0.00,WeatherDisplay:10.37,2013-06-01 21:59:00,
2013-06-01 18:04:00,76.6,64.4,29.89,South,180,3.3,3.5,66,0.00,CLR,,0.00,WeatherDisplay:10.37,2013-06-01 22:04:00,
2013-06-01 18:09:00,76.3,63.6,29.89,West,270,2.0,2.3,65,0.00,CLR,,0.00,WeatherDisplay:10.37,2013-06-01 22:09:00,
2013-06-01 18:14:00,75.9,64.2,29.89,SSE,158,2.9,2.9,67,0.00,CLR,,0.00,WeatherDisplay:10.37,2013-06-01 22:14:00,
2013-06-01 18:19:00,75.6,63.4,29.89,SSW,202,5.4,5.4,66,0.00,CLR,,0.00,WeatherDisplay:10.37,2013-06-01 22:19:00,
2013-06-01 18:24:00,75.2,63.9,29.89,SW,225,4.7,4.7,68,0.00,CLR,,0.00,WeatherDisplay:10.37,2013-06-01 22:24:00,
2013-06-01 18:29:00,75.0,63.7,29.89,SSW,202,6.9,6.9,68,0.00,CLR,,0.00,WeatherDisplay:10.37,2013-06-01 22:29:00,
2013-06-01 18:34:00,75.4,64.1,29.89,SSW,202,3.8,4.6,68,0.00,CLR,,0.00,WeatherDisplay:10.37,2013-06-01 22:34:00,
2013-06-01 18:39:00,75.2,63.5,29.89,SSW,202,2.6,3.5,67,0.00,CLR,,0.00,WeatherDisplay:10.37,2013-06-01 22:39:00,
2013-06-01 18:44:00,74.3,63.5,29.89,SW,225,2.2,2.3,69,0.00,CLR,,0.00,WeatherDisplay:10.37,2013-06-01 22:44:00,
2013-06-01 18:49:00,73.4,63.0,29.90,WSW,248,8.5,8.5,70,0.00,CLR,,0.00,WeatherDisplay:10.37,2013-06-01 22:49:00,
2013-06-01 18:54:00,72.7,62.7,29.90,SW,225,6.2,6.2,71,0.00,CLR,,0.00,WeatherDisplay:10.37,2013-06-01 22:54:00,
2013-06-01 18:59:00,72.0,62.8,29.89,SSW,202,2.9,6.2,73,0.00,CLR,,0.00,WeatherDisplay:10.37,2013-06-01 22:59:00,
2013-06-01 19:04:00,71.2,62.5,29.89,West,270,2.2,4.6,74,0.00,CLR,,0.00,WeatherDisplay:10.37,2013-06-01 23:04:00,
2013-06-01 19:09:00,70.9,62.2,29.89,NW,315,0.7,2.3,74,0.00,CLR,,0.00,WeatherDisplay:10.37,2013-06-01 23:09:00,
2013-06-01 19:14:00,70.5,61.8,29.89,SW,225,7.6,8.1,74,0.00,CLR,,0.00,WeatherDisplay:10.37,2013-06-01 23:14:00,
2013-06-01 19:19:00,70.2,61.9,29.89,SW,225,1.8,9.2,75,0.00,CLR,,0.00,WeatherDisplay:10.37,2013-06-01 23:19:00,
2013-06-01 19:24:00,70.0,62.1,29.89,SW,225,3.8,8.1,76,0.00,CLR,,0.00,WeatherDisplay:10.37,2013-06-01 23:24:00,
2013-06-01 19:29:00,69.6,61.7,29.90,SW,225,0.9,3.5,76,0.00,CLR,,0.00,WeatherDisplay:10.37,2013-06-01 23:29:00,
2013-06-01 19:34:00,69.3,61.4,29.90,SW,225,1.8,2.3,76,0.00,CLR,,0.00,WeatherDisplay:10.37,2013-06-01 23:34:00,
2013-06-01 19:39:00,69.1,61.6,29.89,SSW,202,3.8,3.8,77,0.00,CLR,,0.00,WeatherDisplay:10.37,2013-06-01 23:39:00,
2013-06-01 19:44:00,68.7,61.2,29.89,SW,225,1.6,3.5,77,0.00,CLR,,0.00,WeatherDisplay:10.37,2013-06-01 23:44:00,
2013-06-01 19:49:00,68.5,61.0,29.89,West,270,3.8,3.8,77,0.00,CLR,,0.00,WeatherDisplay:10.37,2013-06-01 23:49:00,
2013-06-01 19:54:00,68.4,61.6,29.90,SSW,202,2.9,2.9,79,0.00,CLR,,0.00,WeatherDisplay:10.37,2013-06-01 23:54:00,
2013-06-01 19:59:00,68.0,61.2,29.90,SSW,202,2.6,4.6,79,0.00,CLR,,0.00,WeatherDisplay:10.37,2013-06-01 23:59:00,
2013-06-01 20:04:00,67.6,61.2,29.90,WSW,248,5.2,5.2,80,0.00,CLR,,0.00,WeatherDisplay:10.37,2013-06-02 00:04:00,
2013-06-01 20:09:00,67.5,61.4,29.90,WSW,248,5.2,5.2,81,0.00,CLR,,0.00,WeatherDisplay:10.37,2013-06-02 00:09:00,
2013-06-01 20:14:00,67.5,61.1,29.90,SE,135,0.7,1.1,80,0.00,CLR,,0.00,WeatherDisplay:10.37,2013-06-02 00:14:00,
2013-06-01 20:19:00,67.3,61.2,29.90,SSW,202,3.1,3.5,81,0.00,CLR,,0.00,WeatherDisplay:10.37,2013-06-02 00:19:00,
2013-06-01 20:24:00,67.1,61.1,29.90,SSW,202,1.6,4.6,81,0.00,CLR,,0.00,WeatherDisplay:10.37,2013-06-02 00:24:00,
2013-06-01 20:29:00,66.9,61.6,29.90,WSW,248,6.7,6.9,83,0.00,CLR,,0.00,WeatherDisplay:10.37,2013-06-02 00:29:00,
2013-06-01 20:34:00,66.7,61.4,29.90,West,270,3.3,6.9,83,0.00,CLR,,0.00,WeatherDisplay:10.37,2013-06-02 00:34:00,
2013-06-01 20:39:00,66.4,61.4,29.90,South,180,3.1,3.1,84,0.00,CLR,,0.00,WeatherDisplay:10.37,2013-06-02 00:39:00,
2013-06-01 20:44:00,66.0,61.4,29.90,West,270,6.9,6.9,85,0.00,CLR,,0.00,WeatherDisplay:10.37,2013-06-02 00:44:00,
2013-06-01 20:49:00,65.8,60.9,29.91,SSW,202,3.3,3.5,84,0.00,CLR,,0.00,WeatherDisplay:10.37,2013-06-02 00:49:00,
2013-06-01 20:54:00,65.7,61.0,29.91,WSW,248,4.0,6.9,85,0.00,CLR,,0.00,WeatherDisplay:10.37,2013-06-02 00:54:00,
2013-06-01 20:59:00,65.5,60.5,29.91,SSW,202,3.8,3.8,84,0.00,CLR,,0.00,WeatherDisplay:10.37,2013-06-02 00:59:00,
2013-06-01 21:04:00,65.5,60.8,29.91,SSW,202,3.1,3.5,85,0.00,CLR,,0.00,WeatherDisplay:10.37,2013-06-02 01:04:00,
2013-06-01 21:09:00,65.3,61.0,29.91,SW,225,3.3,3.3,86,0.00,CLR,,0.00,WeatherDisplay:10.37,2013-06-02 01:09:00,
2013-06-01 21:14:00,65.1,60.5,29.91,SW,225,5.4,5.8,85,0.00,CLR,,0.00,WeatherDisplay:10.37,2013-06-02 01:14:00,
2013-06-01 21:19:00,65.1,60.5,29.91,SW,225,8.5,8.5,85,0.00,CLR,,0.00,WeatherDisplay:10.37,2013-06-02 01:19:00,
2013-06-01 21:24:00,64.9,60.6,29.91,SSW,202,3.8,3.8,86,0.00,CLR,,0.00,WeatherDisplay:10.37,2013-06-02 01:24:00,
2013-06-01 21:29:00,64.8,60.1,29.91,SSW,202,1.1,4.6,85,0.00,CLR,,0.00,WeatherDisplay:10.37,2013-06-02 01:29:00,
2013-06-01 21:34:00,64.8,60.5,29.91,SSW,202,2.2,4.6,86,0.00,CLR,,0.00,WeatherDisplay:10.37,2013-06-02 01:34:00,
2013-06-01 21:39:00,64.6,60.3,29.91,SW,225,2.6,11.5,86,0.00,CLR,,0.00,WeatherDisplay:10.37,2013-06-02 01:39:00,
2013-06-01 21:44:00,64.6,60.6,29.91,SSW,202,3.3,3.5,87,0.00,CLR,,0.00,WeatherDisplay:10.37,2013-06-02 01:44:00,
2013-06-01 21:49:00,64.4,60.4,29.91,WSW,248,5.2,5.2,87,0.00,CLR,,0.00,WeatherDisplay:10.37,2013-06-02 01:49:00,
2013-06-01 21:54:00,64.4,60.4,29.91,SSW,202,4.7,4.7,87,0.00,CLR,,0.00,WeatherDisplay:10.37,2013-06-02 01:54:00,
2013-06-01 21:59:00,64.2,59.9,29.91,SW,225,2.9,4.6,86,0.00,CLR,,0.00,WeatherDisplay:10.37,2013-06-02 01:59:00,
2013-06-01 22:04:00,64.2,59.9,29.91,SW,225,4.7,4.7,86,0.00,CLR,,0.00,WeatherDisplay:10.37,2013-06-02 02:04:00,
2013-06-01 22:09:00,64.0,59.8,29.91,WSW,248,0.5,4.6,86,0.00,CLR,,0.00,WeatherDisplay:10.37,2013-06-02 02:09:00,
2013-06-01 22:14:00,64.0,60.1,29.91,SSW,202,4.7,4.7,87,0.00,CLR,,0.00,WeatherDisplay:10.37,2013-06-02 02:14:00,
2013-06-01 22:19:00,64.0,59.8,29.91,SSW,202,2.4,4.6,86,0.00,CLR,,0.00,WeatherDisplay:10.37,2013-06-02 02:19:00,
2013-06-01 22:24:00,64.0,60.1,29.91,SW,225,3.6,3.6,87,0.00,CLR,,0.00,WeatherDisplay:10.37,2013-06-02 02:24:00,
2013-06-01 22:29:00,64.0,60.1,29.91,South,180,2.6,2.6,87,0.00,CLR,,0.00,WeatherDisplay:10.37,2013-06-02 02:29:00,
2013-06-01 22:34:00,63.9,59.9,29.91,SW,225,2.0,8.1,87,0.00,CLR,,0.00,WeatherDisplay:10.37,2013-06-02 02:34:00,
2013-06-01 22:39:00,64.0,60.1,29.91,South,180,0.5,6.9,87,0.00,CLR,,0.00,WeatherDisplay:10.37,2013-06-02 02:39:00,
2013-06-01 22:44:00,64.0,60.4,29.90,SSW,202,1.1,8.1,88,0.00,CLR,,0.00,WeatherDisplay:10.37,2013-06-02 02:44:00,
2013-06-01 22:49:00,64.0,60.4,29.90,WNW,292,2.9,8.1,88,0.00,CLR,,0.00,WeatherDisplay:10.37,2013-06-02 02:49:00,
2013-06-01 22:54:00,64.0,60.4,29.90,SW,225,9.9,9.9,88,0.00,CLR,,0.00,WeatherDisplay:10.37,2013-06-02 02:54:00,
2013-06-01 22:59:00,64.0,60.1,29.90,West,270,4.7,4.7,87,0.00,CLR,,0.00,WeatherDisplay:10.37,2013-06-02 02:59:00,
2013-06-01 23:04:00,64.0,60.1,29.90,SSW,202,5.4,5.4,87,0.00,CLR,,0.00,WeatherDisplay:10.37,2013-06-02 03:04:00,
2013-06-01 23:09:00,63.9,59.9,29.90,SSW,202,4.3,5.8,87,0.00,CLR,,0.00,WeatherDisplay:10.37,2013-06-02 03:09:00,
2013-06-01 23:14:00,63.7,59.7,29.90,WSW,248,5.4,5.8,87,0.00,CLR,,0.00,WeatherDisplay:10.37,2013-06-02 03:14:00,
2013-06-01 23:19:00,63.7,59.7,29.90,SW,225,1.8,2.3,87,0.00,CLR,,0.00,WeatherDisplay:10.37,2013-06-02 03:19:00,
2013-06-01 23:24:00,63.7,60.1,29.90,SW,225,5.2,5.2,88,0.00,CLR,,0.00,WeatherDisplay:10.37,2013-06-02 03:24:00,
2013-06-01 23:29:00,63.7,59.7,29.91,SSW,202,1.6,2.3,87,0.00,CLR,,0.00,WeatherDisplay:10.37,2013-06-02 03:29:00,
2013-06-01 23:34:00,63.7,60.1,29.91,SW,225,0.9,5.8,88,0.00,CLR,,0.00,WeatherDisplay:10.37,2013-06-02 03:34:00,
2013-06-01 23:39:00,63.7,60.1,29.90,South,180,6.0,6.9,88,0.00,CLR,,0.00,WeatherDisplay:10.37,2013-06-02 03:39:00,
2013-06-01 23:44:00,63.7,59.7,29.91,West,270,4.5,4.5,87,0.00,CLR,,0.00,WeatherDisplay:10.37,2013-06-02 03:44:00,
2013-06-01 23:49:00,63.5,59.9,29.91,WSW,248,2.6,3.5,88,0.00,CLR,,0.00,WeatherDisplay:10.37,2013-06-02 03:49:00,
2013-06-01 23:54:00,63.5,59.9,29.91,SW,225,2.4,2.4,88,0.00,CLR,,0.00,WeatherDisplay:10.37,2013-06-02 03:54:00,
2013-06-01 23:59:00,63.7,60.1,29.91,SW,225,3.3,4.6,88,0.00,CLR,,0.00,WeatherDisplay:10.37,2013-06-02 03:59:00,